Regional Weather Roundup
Issued by NWS

Home | Current Version | Previous Version | Graphics & Text | Print | Product List | Glossary On
Versions: 1 2 3 4 5 6 7 8 9 10 11 12 13 14 15 16 17 18 19 20 21 22 23 24 25 26 27 28 29 30 31 32 33 34 35 36 37 38 39 40 41 42 43 44 45 46 47 48 49 50
000
ASUS45 KBOI 271310
RWRID
WEATHER ROUNDUP FOR IDAHO
NATIONAL WEATHER SERVICE BOISE ID
700 AM MDT SUN JUL 27 2014

NOTE: "FAIR" INDICATES FEW OR NO CLOUDS BELOW 12000 FEET
WITH NO SIGNIFICANT WEATHER AND/OR OBSTRUCTIONS TO VISIBILITY

IDZ012-014-271400-
SOUTHWEST IDAHO


CITY           SKY/WX    TMP DP  RH WIND       PRES   REMARKS
BOISE          CLEAR     64  30  27 SE3       30.11R
CALDWELL       CLEAR     54  39  58 CALM      30.12R
MOUNTAIN HOME  CLEAR     56  30  37 SE2       30.11R
$$

IDZ016-017-271400-
SOUTHCENTRAL IDAHO


CITY           SKY/WX    TMP DP  RH WIND       PRES   REMARKS
BURLEY         PTCLDY    53  45  74 CALM      30.19R
JEROME         CLEAR     62  39  42 E8        30.18R
TWIN FALLS     CLEAR     65  28  24 S8        30.18R
$$

IDZ019>023-271400-
SOUTHEAST IDAHO


CITY           SKY/WX    TMP DP  RH WIND       PRES   REMARKS
IDAHO FALLS    CLEAR     46  40  79 N6        30.26R
POCATELLO      CLEAR     48  38  68 NW3       30.24R
REXBURG        CLEAR     47  39  74 NE7       30.27R
$$

IDZ006-010-011-018-031-032-271400-
CENTRAL IDAHO MOUNTAINS


CITY           SKY/WX    TMP DP  RH WIND       PRES   REMARKS
MCCALL         CLEAR     47  36  65 CALM      30.26S
HAILEY         PTCLDY    55  28  35 NW10G18   30.30R
STANLEY          N/A     30  24  78 CALM      30.42R
SALMON         CLEAR     46  37  71 CALM      30.28R
CHALLIS        CLEAR     49  30  48 CALM      30.32R
$$

IDZ002-004-006-007-026-271400-
NORTHERN IDAHO


CITY           SKY/WX    TMP DP  RH WIND       PRES   REMARKS
LEWISTON       CLEAR     61  43  51 CALM      30.12R
LOWELL           N/A     52  46  80 CALM      30.22R
COEUR D`ALENE  CLEAR     55  46  71 SE12      30.18S
MULLAN PASS    CLEAR     58  34  40 SE6       30.34S
$$



USA.gov is the U.S. government's official web portal to all federal, state and local government web resources and services.